Regional Weather Roundup
Issued by NWS

Home | Current Version | Previous Version | Text Only | Print | Product List | Glossary Off
Versions: 1 2 3 4 5 6 7 8 9 10 11 12 13 14 15 16 17 18 19 20 21 22 23 24 25 26 27 28 29 30 31 32 33 34 35 36 37 38 39 40 41 42 43 44 45 46 47 48 49 50

000
ASUS43 KLMK 021802
RWRKY
KENTUCKY REGIONAL WEATHER ROUNDUP
NATIONAL WEATHER SERVICE LOUISVILLE KY
100 PM EST MON MAR 02 2015

NOTE "FAIR" INDICATES FEW OR NO CLOUDS BELOW 12,000 FEET
WITH NO SIGNIFICANT WEATHER AND/OR OBSTRUCTIONS TO VISIBILITY.

KYZ001>023-026-027-061>063-070>075-021900-
WESTERN AND SOUTH CENTRAL KENTUCKY

CITY           SKY/WX    TMP DP  RH WIND       PRES   REMARKS
PADUCAH        SUNNY     36  20  52 E12       30.49F WCI  28
HENDERSON      SUNNY     34  18  51 E8        30.52F WCI  27
OWENSBORO      MOSUNNY   35  19  52 NE9       30.51F WCI  28
HOPKINSVILLE   SUNNY     37  24  58 NE9       30.46F WCI  31
BOWLING GREEN  SUNNY     40  24  53 E8        30.48F WCI  34
GLASGOW        NOT AVBL
$$

KYZ024-025-028>034-038-045-046-053-021900-
NORTH CENTRAL KENTUCKY

CITY           SKY/WX    TMP DP  RH WIND       PRES   REMARKS
LOUISVILLE/SDF CLOUDY    37  16  42 NE7       30.50F WCI  32
LOUISVILLE/LOU SUNNY     37  15  40 N7        30.51F WCI  32
FORT KNOX      SUNNY     37  19  48 E6        30.46F WCI  32
$$

KYZ035>037-039>044-047>052-055>060-089>105-021900-
NORTHEAST KENTUCKY

CITY           SKY/WX    TMP DP  RH WIND       PRES   REMARKS
LEXINGTON      SUNNY     34  21  59 N8        30.49F WCI  27
COVINGTON      PTSUNNY   32  16  51 W3        30.51F
FRANKFORT      SUNNY     34  20  56 NE5       30.49F WCI  30
$$

KYZ054-064>069-076>088-106>120-021900-
SOUTHEAST KENTUCKY

CITY           SKY/WX    TMP DP  RH WIND       PRES   REMARKS
JACKSON        SUNNY     40  21  46 NE5       30.42F
LONDON         SUNNY     41  26  55 N9        30.42F
SOMERSET       NOT AVBL
MIDDLESBORO    NOT AVBL
MONTICELLO     CLEAR     42  30  62 N8        30.47F
$$




USA.gov is the U.S. government's official web portal to all federal, state and local government web resources and services.